Location: Strohbehn Observatory
(42.4649°N, 93.8239°W)
Time: 04:13:54
(UTC-05:00)

Daily predictions for brighter satellites

Satellite Brightness Start Highest point End
(mag) Time Altitude Azimuth Time Altitude Azimuth Time Altitude Azimuth
USA 215 3.9 00:08:54 47° WNW 00:08:54 47° WNW 00:13:30 10° NW
Cosmos 2219 Rocket 4.3 00:17:15 18° NE 00:17:15 18° NE 00:18:38 10° NNE
Cosmos 2263 Rocket 4.4 00:14:14 10° NW 00:16:14 17° WNW 00:16:14 17° WNW
Cosmos 2237 Rocket 4.3 00:39:41 19° NE 00:39:41 19° NE 00:41:15 10° NNE
Cosmos 2333 Rocket 4.2 00:45:35 23° NNE 00:45:35 23° NNE 00:47:39 10° NNE
COSMOS 2428 4.5 01:00:49 28° NNW 01:00:49 28° NNW 01:04:02 10° N
Cosmos 2278 Rocket 4.1 01:05:33 10° NNW 01:07:42 24° NNW 01:07:42 24° NNW
ATLAS 3B R/B 3.4 01:25:37 54° NNE 01:25:37 54° NNE 01:31:14 10° NNE
CZ-2C R/B 4.5 01:20:48 10° NNE 01:23:21 28° NNE 01:23:21 28° NNE
COSMOS 2455 4.3 01:30:34 33° N 01:30:34 33° N 01:34:00 10° NNE
Cosmos 2369 Rocket 4.2 01:47:49 10° N 01:52:02 21° NE 01:52:13 21° NE
Cosmos 2219 Rocket 4.2 01:58:58 22° NNW 01:58:58 22° NNW 02:01:59 10° N
SL-16 R/B 3.7 02:19:50 32° N 02:19:50 32° N 02:23:04 10° NNE
Cosmos 2237 Rocket 4.1 02:21:30 23° NNW 02:21:30 23° NNW 02:24:46 10° N
CZ-4C R/B 3.5 02:26:08 38° NNE 02:26:08 38° NNE 02:29:58 10° NNE
USA 238 DEB 4.2 02:26:22 55° NNW 02:26:22 55° NNW 02:32:15 10° NNE
USA 238 4.2 02:26:29 55° N 02:26:29 55° N 02:32:21 10° NNE
Cosmos 2333 Rocket 4.2 02:27:34 20° NW 02:27:34 20° NW 02:30:59 10° N
ATLAS 5 CENTAUR R/B 4.2 02:38:58 17° ENE 02:38:58 17° ENE 02:40:35 10° ENE
NOSS 3-2 (A) 4.1 02:40:16 52° NE 02:40:16 52° NE 02:45:12 10° NE
SL-16 R/B 4.3 02:41:16 17° ESE 02:44:32 26° ENE 02:49:32 10° N
CENTAUR R/B 4.3 02:47:14 20° ESE 02:47:14 20° ESE 02:51:32 10° ENE
NOSS 3-2 (C) 3.8 02:58:41 63° NE 02:58:41 63° NE 03:04:14 10° NE
CZ-2D R/B 4.0 02:56:46 10° NE 03:00:35 20° E 03:00:54 20° E
Cosmos 2251 Rocket 4.3 03:17:15 48° NNE 03:17:15 48° NNE 03:21:02 10° NNE
CZ-3A R/B 4.2 03:17:27 29° WNW 03:19:13 34° NNW 03:23:14 10° NE
Resurs 1-4 Rocket 3.3 03:19:48 10° NNE 03:24:34 33° E 03:24:59 33° ESE
Cosmos 883 Rocket 4.5 03:24:51 72° E 03:24:51 72° E 03:30:55 10° NNE
NPP 4.2 03:20:46 10° N 03:24:54 52° N 03:24:54 52° N
Cosmos 1943 3.4 03:28:04 65° N 03:28:04 65° N 03:32:53 10° NNE
Cosmos 494 Rocket 4.4 03:32:31 58° NNE 03:32:31 58° NNE 03:36:45 10° NNE
Cosmos 2369 Rocket 3.4 03:30:59 10° NNW 03:33:56 32° NW 03:33:56 32° NW
Meteor 2-3 Rocket 4.0 03:31:31 10° NNW 03:36:18 61° NNW 03:36:18 61° NNW
Cosmos 1455 3.9 03:43:34 33° NE 03:43:34 33° NE 03:46:01 10° NNE
Cosmos 1943 Rocket 2.4 03:42:13 10° NNW 03:47:54 68° ENE 03:50:12 36° SE
Cosmos 2315 Rocket 4.0 03:47:44 64° SSE 03:48:42 79° E 03:55:00 10° N
Cosmos 1862 Rocket 4.1 03:57:10 54° E 03:57:10 54° E 04:01:20 10° NNE
SeaSat 1 4.3 03:56:24 10° ESE 04:00:40 30° NE 04:04:57 10° N
ERS-2 3.6 03:57:54 10° N 04:00:05 34° N 04:00:05 34° N
Cosmos 2242 Rocket 4.3 04:07:27 46° NNW 04:07:27 46° NNW 04:10:58 10° N
USA 234 3.4 04:00:30 10° NE 04:07:02 66° SE 04:08:50 48° SSW
Meteor 2-10 4.1 04:10:53 61° W 04:10:58 61° WNW 04:16:17 10° N
IRS-1D 3.4 04:06:07 10° N 04:11:22 79° WNW 04:11:54 70° SW
Spot 4 Rocket 4.3 04:07:13 10° N 04:12:08 52° WNW 04:12:08 52° WNW
Cosmos 1656 Rocket 4.4 04:07:38 10° NNW 04:12:55 51° ENE 04:18:11 10° SE
Cosmos 1825 3.6 04:10:13 10° N 04:13:45 35° ENE 04:15:21 24° SE
CZ-4C R/B 4.2 04:11:18 14° NW 04:13:47 18° NNW 04:17:58 10° NNE
ARIANE 5 R/B 2.4 04:09:35 10° N 04:14:49 69° WNW 04:15:13 66° WSW
Abrixas rocket 3.6 04:19:34 39° NE 04:19:34 39° NE 04:22:22 10° E
Cosmos 1733 Rocket 3.3 04:15:05 10° NNW 04:18:46 57° NW 04:18:46 57° NW
ATLAS 5 CENTAUR R/B 2.2 04:20:31 49° WNW 04:20:57 51° NW 04:26:07 10° NNE
MOS 1-B 4.3 04:18:10 10° NNE 04:23:59 79° ESE 04:26:28 36° S
Cosmos 389 Rocket 3.0 04:26:32 53° N 04:26:32 53° N 04:29:19 10° N
SL-16 R/B 2.6 04:26:22 45° SW 04:27:47 54° W 04:33:51 10° NNW
Cosmos 1709 Rocket 4.3 04:23:32 10° NNW 04:29:32 45° W 04:30:26 43° WSW
CZ-2D R/B 3.5 04:29:04 10° NNE 04:33:28 79° ESE 04:34:34 49° S
ADEOS 4.4 04:29:25 10° N 04:33:59 32° WNW 04:34:16 31° WNW
Cosmos 1174 4.2 04:34:34 50° SSW 04:35:55 88° SE 04:40:17 10° NNE
ARGOS Delta rocket 3.7 04:31:46 10° NNE 04:36:10 73° E 04:37:54 36° S
CENTAUR R/B 2.5 04:34:26 41° SW 04:36:44 75° NW 04:43:43 10° NNE
CZ-2D R/B 2.3 04:35:52 10° N 04:40:58 52° WNW 04:42:14 42° WSW
SL-08 ROCKET BODY 4.4 04:35:11 10° N 04:41:16 89° E 04:47:25 10° S
Cosmos 1190 Rocket 4.5 04:40:10 22° S 04:43:23 56° ESE 04:48:30 10° NNE
BREEZE-M DEB (TANK) 4.0 04:45:01 30° SE 04:45:11 31° SE 04:48:41 10° ENE
COSMOS 2487 3.9 04:44:03 22° SSE 04:45:49 35° ESE 04:49:09 10° NE
Cosmos 1992 Rocket 3.9 04:40:54 10° NNW 04:46:09 79° WSW 04:51:22 10° SSE
CZ-2C R/B 3.8 04:43:58 10° SSE 04:48:22 75° ENE 04:52:49 10° N
Cosmos 1908 Rocket 3.4 04:46:55 10° NNW 04:51:17 70° W 04:53:33 27° S
MTI 4.3 04:53:23 45° WNW 04:53:23 45° WNW 04:56:05 10° NNW
Cosmos 2074 Rocket 3.9 04:47:03 10° NNW 04:53:14 68° W 04:59:24 10° S
SL-27 R/B 3.2 04:53:46 38° WNW 04:53:46 38° WNW 04:57:08 10° N
EO 1 Del DPAF 4.1 04:55:10 33° WNW 04:55:10 33° WNW 04:58:05 10° NNW
Cosmos 2327 Rocket 4.4 04:49:00 10° NNW 04:55:04 67° W 05:01:11 10° S
UNKNOWN OBJECT B 3.3 04:53:51 10° N 04:57:19 37° WNW 04:57:28 37° WNW
Cosmos 2154 Rocket 4.3 04:53:36 10° N 04:59:56 70° E 05:06:16 10° SSE
Thor Agena Rocket 4.0 04:55:07 10° SSE 05:00:12 64° ENE 05:05:23 10° N
Cosmos 2184 Rocket 4.0 04:54:31 10° NNW 05:00:48 62° W 05:07:01 10° S
Resurs 1-4 Rocket 3.0 04:59:42 10° N 05:04:20 32° WNW 05:06:04 26° W
Cosmos 1862 3.5 05:00:37 10° NNW 05:04:26 47° W 05:05:48 33° SW
Okean O Rocket 1.6 05:02:28 10° N 05:06:57 75° WNW 05:09:51 21° SSW
USA 32 3.9 05:02:38 14° S 05:07:13 79° W 05:12:29 10° N
Meteor 1-26 Rocket 4.5 05:01:25 10° S 05:07:14 76° E 05:13:08 10° NNE
Cosmos 2221 Rocket 3.5 05:06:39 22° SSW 05:09:27 70° W 05:13:53 10° N
Cosmos 1703 Rocket 3.6 05:07:23 24° SSW 05:09:57 62° W 05:14:26 10° N
ADEOS II 3.3 05:08:20 10° NNE 05:13:20 42° E 05:18:18 10° S
Cosmos 1610 Rocket 4.5 05:07:48 10° NNW 05:14:06 68° W 05:20:18 10° S
Okean-O 3.7 05:13:28 10° NNE 05:17:45 46° E 05:22:00 10° S
Cosmos 1455 4.4 05:18:36 12° WNW 05:18:36 12° WNW 05:20:01 10° NW
Cosmos 676 Rocket 4.1 05:16:34 10° SSW 05:21:44 75° ESE 05:26:56 10° NNE
Cosmos 1408 3.5 05:18:48 10° NNW 05:22:06 30° W 05:23:14 25° WSW
COSMOS 2406 3.8 05:19:48 21° WSW 05:23:14 42° WNW 05:28:42 10° NNE
Meteor 1-14 Rocket 4.3 05:17:31 10° N 05:23:24 88° W 05:29:21 10° S
PSLV R/B 4.1 05:20:08 10° NNE 05:24:30 62° E 05:28:50 10° S
Cosmos 2341 Rocket 4.1 05:19:38 10° N 05:25:59 85° E 05:32:20 10° S
CZ-4B R/B 3.1 05:23:38 10° N 05:28:53 65° WNW 05:34:06 10° SSW
MOZ.5/SAFIR/RUBIN 5/SL-8 4.2 05:24:42 10° SSW 05:28:59 38° W 05:33:19 10° NNW
Cosmos 1933 4.4 05:27:35 21° WSW 05:29:07 27° WNW 05:32:40 10° NNW
Cosmos 1943 Rocket 3.5 05:27:28 10° WNW 05:31:00 17° W 05:31:30 17° WSW
Cosmos 2151 Rocket 4.0 05:27:28 10° N 05:31:52 67° E 05:36:14 10° SSE
CZ-4B DEB 4.2 05:27:51 10° N 05:33:17 65° WNW 05:38:40 10° SSW
Cosmos 962 Rocket 4.5 05:28:16 10° N 05:34:37 84° W 05:40:51 10° S
Okean 1-7 3.2 05:31:49 11° SSW 05:35:46 50° W 05:40:03 10° N
Cosmos 407 Rocket 3.6 05:31:50 12° SSW 05:36:32 60° WNW 05:41:48 10° NNE
SeaSat 1 2.8 05:33:27 10° S 05:38:04 39° WSW 05:42:42 10° NW
Meteor 2-13 Rocket 4.4 05:32:43 10° N 05:38:48 86° W 05:44:52 10° S
GPS 2-05 Rocket1 4.2 05:38:31 16° SW 05:40:23 24° S 05:43:08 10° ESE
CZ-4B R/B 3.2 05:37:36 10° N 05:41:04 40° WNW 05:44:28 11° SW
Cosmos 1782 3.7 05:40:05 10° S 05:44:01 53° E 05:47:58 10° NNE
Atlas Centaur 2 3.5 05:42:14 10° SSW 05:45:06 18° S 05:48:24 10° SE
Cosmos 2082 Rocket 3.5 05:41:10 10° S 05:46:29 41° ESE 05:51:47 10° NE
Cosmos 1825 3.9 05:46:55 10° NW 05:49:02 15° W 05:50:12 13° WSW
USA 234 3.9 05:43:41 10° NE 05:49:51 45° NNW 05:55:59 10° W
Cosmos 1140 Rocket 3.8 05:45:18 10° S 05:50:23 72° ESE 05:55:32 10° NNE
Cosmos 2218 Rocket 4.4 05:47:55 10° N 05:54:03 70° E 06:00:11 10° SSE
Cosmos 1833 Rocket 4.2 05:50:24 10° S 05:55:32 39° ESE 06:00:42 10° NE
Okean 2 Rocket 3.9 05:51:40 10° NNW 05:55:35 30° W 05:59:31 10° SSW
Abrixas rocket 2.7 05:53:03 10° WNW 05:56:13 41° SW 05:59:23 10° SE
Okean 1 Rocket 4.5 05:52:40 10° N 05:56:51 43° ENE 06:01:01 10° SSE
Aureole 3 Rocket 4.4 05:54:17 10° SW 05:59:48 31° W 06:03:59 10° NNW
Geosat 4.0 05:55:16 10° NNE 06:00:20 87° WNW 06:05:21 10° SSW
Cosmos 614 Rocket 4.5 05:59:51 10° S 06:04:54 64° ESE 06:09:56 10° NNE
ATLAS 5 CENTAUR R/B 4.1 06:04:29 10° NW 06:07:02 13° NNW 06:09:40 10° N
Cosmos 1674 Rocket 3.6 06:03:14 10° S 06:07:40 90° WSW 06:12:07 10° N
Cosmos 1741 Rocket 4.3 06:02:33 10° S 06:07:45 72° ESE 06:12:58 10° NNE
Ariane Rocket 4.3 06:03:01 10° NNE 06:07:54 45° E 06:12:45 10° S
ADEOS Rocket 3.7 06:03:00 10° N 06:10:38 62° WNW 06:18:10 10° SSW
